Retour au catalogue

CZ-4C DEB

ActifLEO
NORAD 40113·DEBRIS·🇨🇳 China

Lancé Aug 9, 2014 depuis Jiuquan Satellite Launch Center

Loading…

Prochains Passages (prochaines 24 heures)

TLE

FraisSource: Space-Track

Époque: Sep 14, 2026, 10:40 UTC

1 40113U 14047E   26257.44458747  .00000075  00000-0  17436-3 0  9996
2 40113  63.3779 170.4997 0400267  16.0775 345.2532 13.44736042593968

Suivez CZ-4C DEB en temps réel avec AllMySat

Download on the App Store